GLOBALSTAR M097 [+] (39072 NORAD) Tracking and Keplerian Element Data

This shows tracking and keplerian element data for the satellite.

Feedback or suggestion? Click here.




ElementValue
Catalog39072
NameGLOBALSTAR M097 [+]
Epoch Orbit25231
Epoch Day202.55800289
Epoch Year2018
RAAN33.5983
Inclination52.0059
Eccentricity0.0001338
Argument of Perigee87.4881
Mean Anonmoly272.6139
Mean Motion12.62266596
Decay Rate-1.01E-06
L11 39072U 13005A 18202.55800289 -.00000101 00000-0 12970-4 0 9996
L22 39072 52.0059 33.5983 0001338 87.4881 272.6139 12.62266596252314

Live tracking and technical data element details for GLOBALSTAR M097 [+] (NORAD 39072). GLOBALSTAR M097 [+] can be tracked NOW for your location showing map with azimuth and elevation plus other details from your city location.

Track the satellite on the map from your city or location and see movement details for azimuth, elevation, latitude, longitude, range, height, and movement on the map or in text.







IsCatalogInMostPopularTable: catalog: 39072, numindb: 50
Update: records affected: 1



GetName: 39072 GLOBALSTAR M097 [+]

Hit Count: updated at: Mon, 23 Jul 2018 07:51:55 GMT